Weather reports worldwide

Advertisment
Auch, France (7622): temperature & dewpoint: 13.03.2019 09:00:00 - 19.03.2019 09:00:00 (CET)Auch, France (7622): temperature 5cm: 13.03.2019 09:00:00 - 19.03.2019 09:00:00 (CET)Auch, France (7622): temperature -20cm & temperature -100cm: 13.03.2019 09:00:00 - 19.03.2019 09:00:00 (CET)Auch, France (7622): wind speed & gusts: 13.03.2019 09:00:00 - 19.03.2019 09:00:00 (CET)Auch, France (7622): wind direction: 13.03.2019 09:00:00 - 19.03.2019 09:00:00 (CET)Auch, France (7622): reduced air pressure: 13.03.2019 09:00:00 - 19.03.2019 09:00:00 (CET)Auch, France (7622): visibility: 13.03.2019 09:00:00 - 19.03.2019 09:00:00 (CET)Auch, France (7622): sunshine duration: 13.03.2019 09:00:00 - 19.03.2019 09:00:00 (CET)Auch, France (7622): precipitation: 13.03.2019 09:00:00 - 19.03.2019 09:00:00 (CET)
Date & Time tt [°C] td [°C] tt 5cm [°C] tt -20cm [°C] tt -100cm [°C] ff [km/h] ff [kn] fx [km/h] fx [kn] dd ppp [hPa] vv [km] sd [min] rr [mm]
19.03.2019 09:00:00 7,3 5,6 6,6 10,9 11,5 9 5 14 7 NNW 1027,9 20 0 0,0
19.03.2019 08:00:00 6,5 5,6 5,9 11,0 11,5 6 3 11 6 NW 1027,7 20 0 0,0
19.03.2019 07:00:00 6,2 5,3 5,7 11,0 11,4 2 1 8 4 W 1027,1 20 0 0,0
19.03.2019 06:00:00 6,4 5,5 6,0 11,1 11,5 6 3 11 6 W 1026,9 12 0 0,0
19.03.2019 05:00:00 6,3 5,6 5,6 11,1 11,5 4 2 8 4 W 1026,7 20 0 0,2
19.03.2019 04:00:00 6,2 5,5 5,5 11,2 11,5 3 2 10 5 WSW 1026,6 20 0 0,4
19.03.2019 03:00:00 6,0 5,1 5,4 11,3 11,5 3 2 9 5 SW 1026,9 18 0 0,8
19.03.2019 02:00:00 6,2 4,7 5,4 11,3 11,5 3 1 17 9 W 1027,4 11 0 1,2
19.03.2019 01:00:00 6,6 4,6 5,6 11,4 11,5 5 3 14 8 WNW 1027,7 16 0 1,4
19.03.2019 00:00:00 7,9 3,7 6,1 11,4 11,5 10 6 29 15 W 1027,6 18 0 0,0
18.03.2019 23:00:00 8,6 4,0 7,9 11,4 11,5 8 4 19 10 W 1027,6 20 0 0,0
18.03.2019 22:00:00 9,0 3,6 8,1 11,5 11,5 9 5 23 12 WNW 1027,7 20 0 0,0
18.03.2019 21:00:00 9,7 2,5 7,9 11,5 11,5 11 6 24 13 WNW 1027,4 20 0 0,0
18.03.2019 20:00:00 9,4 4,4 7,9 11,4 11,5 3 2 10 5 WSW 1027,0 20 0 0,0
18.03.2019 19:00:00 9,4 4,4 8,7 11,4 11,5 6 3 25 13 NW 1026,9 20 0 0,0
18.03.2019 18:00:00 10,1 4,2 9,9 11,2 11,5 21 11 35 19 NNW 1026,3 20 24 0,0
18.03.2019 17:00:00 12,4 2,3 10,6 11,1 11,4 8 4 29 16 NW 1026,0 20 7 0,0
18.03.2019 16:00:00 12,8 1,8 13,4 11,0 11,5 13 7 30 16 W 1026,2 20 37 0,0
18.03.2019 15:00:00 12,3 2,4 13,5 10,8 11,5 11 6 27 15 W 1026,5 20 14 0,0
18.03.2019 14:00:00 12,5 1,5 12,2 10,7 11,4 10 6 24 13 WNW 1027,1 20 31 0,0
18.03.2019 13:00:00 11,2 2,0 12,1 10,6 11,4 14 8 29 16 NW 1028,0 20 40 0,0
18.03.2019 12:00:00 11,5 3,0 10,8 10,5 11,4 15 8 26 14 NW 1028,3 20 32 0,0
18.03.2019 11:00:00 9,8 3,5 11,7 10,5 11,4 9 5 25 13 WNW 1028,6 20 35 0,0
18.03.2019 10:00:00 9,3 4,7 9,8 10,6 11,4 12 7 21 11 W 1028,1 19 56 0,0
18.03.2019 09:00:00 7,6 4,4 5,1 10,7 11,4 12 7 19 10 W 1027,7 20 52 0,0
18.03.2019 08:00:00 4,5 3,3 0,2 10,8 11,4 3 2 9 5 WSW 1027,5 20 3 0,0
18.03.2019 07:00:00 4,8 3,1 2,2 10,9 11,4 6 3 10 5 SW 1027,1 20 0 0,0
18.03.2019 06:00:00 4,8 3,1 2,4 11,0 11,4 6 3 14 8 WSW 1026,5 20 0 0,0
18.03.2019 05:00:00 4,5 3,2 1,0 11,1 11,4 5 3 13 7 WSW 1026,1 20 0 0,0
18.03.2019 04:00:00 4,8 3,3 2,9 11,2 11,4 9 5 12 7 SSW 1025,7 20 0 0,0
18.03.2019 03:00:00 5,7 3,0 4,1 11,3 11,4 5 3 17 9 WSW 1025,7 20 0 0,0
18.03.2019 02:00:00 6,2 3,0 3,7 11,4 11,4 9 5 19 11 WSW 1026,0 20 0 0,0
18.03.2019 01:00:00 4,7 2,9 1,5 11,5 11,4 7 4 16 8 SSW 1026,4 20 0 0,0
18.03.2019 00:00:00 4,4 1,8 1,5 11,6 11,4 10 5 14 8 S 1026,5 20 0 0,0
17.03.2019 23:00:00 6,6 2,7 4,2 11,7 11,4 7 4 16 9 WSW 1026,1 20 0 0,0
17.03.2019 22:00:00 6,8 2,3 4,7 11,8 11,4 6 3 16 9 W 1025,6 20 0 0,0
17.03.2019 21:00:00 7,9 2,1 5,9 11,8 11,4 8 5 24 13 W 1024,8 20 0 0,0
17.03.2019 20:00:00 8,8 1,7 6,8 11,9 11,4 10 5 34 18 WNW 1024,1 20 0 0,0
17.03.2019 19:00:00 10,1 0,9 8,4 11,8 11,4 12 7 42 23 W 1023,0 20 29 0,0
17.03.2019 18:00:00 11,7 1,3 10,9 11,8 11,4 21 11 34 19 WNW 1022,2 20 39 0,0
17.03.2019 17:00:00 12,2 4,2 11,4 11,7 11,4 16 9 35 19 W 1021,6 20 15 0,0
17.03.2019 16:00:00 11,0 5,1 11,8 11,7 11,4 18 10 40 22 W 1021,5 20 29 0,2
17.03.2019 15:00:00 11,1 7,8 9,6 11,6 11,4 15 8 34 18 WSW 1021,1 20 1 0,0
17.03.2019 14:00:00 9,6 7,7 8,9 11,5 11,3 14 8 43 23 NW 1021,1 20 0 0,4
17.03.2019 13:00:00 10,8 7,8 9,7 11,5 11,4 24 13 43 23 W 1020,2 7 1 0,2
17.03.2019 12:00:00 14,2 7,9 15,0 11,4 11,4 21 11 44 24 W 1019,0 20 9 0,0
17.03.2019 11:00:00 14,1 7,8 14,6 11,4 11,4 19 11 37 20 W 1018,7 20 29 0,0
17.03.2019 10:00:00 12,6 7,7 11,9 11,4 11,4 13 7 24 13 SW 1018,8 20 1 0,0
17.03.2019 09:00:00 11,6 8,1 11,2 11,5 11,3 6 4 18 10 WSW 1018,7 20 40 0,0
17.03.2019 08:00:00 10,1 8,0 8,5 11,5 11,4 6 3 12 7 S 1017,7 15 7 0,0
17.03.2019 07:00:00 10,4 8,2 9,8 11,5 11,3 6 3 13 7 SW 1017,3 18 0 0,0
17.03.2019 06:00:00 10,3 7,9 9,7 11,6 11,3 5 3 16 9 W 1016,8 19 0 0,0
17.03.2019 05:00:00 10,1 7,5 9,4 11,7 11,3 6 3 20 11 NW 1016,0 20 0 0,0
17.03.2019 04:00:00 9,9 7,5 8,2 11,8 11,3 13 7 23 13 WNW 1015,6 20 0 0,0
17.03.2019 03:00:00 9,7 6,6 1,9 11,9 11,3 8 4 28 15 WSW 1015,2 20 0 0,0
17.03.2019 02:00:00 4,6 3,6 1,3 12,1 11,3 5 3 11 6 S 1014,7 20 0 0,0
17.03.2019 01:00:00 5,5 4,6 1,2 12,2 11,3 4 2 9 5 SSE 1014,0 20 0 0,0
17.03.2019 00:00:00 5,7 4,2 1,8 12,3 11,3 2 1 3 2 SSW 1014,3 20 0 0,0
16.03.2019 23:00:00 7,6 5,6 1,8 12,4 11,3 2 1 13 7 W 1014,6 15 0 0,0
16.03.2019 22:00:00 6,8 4,8 2,2 12,4 11,3 2 1 4 2 S 1015,1 20 0 0,0
16.03.2019 21:00:00 8,4 5,1 3,3 12,4 11,3 3 2 5 3 SSW 1015,3 20 0 0,0
16.03.2019 20:00:00 10,9 6,2 4,5 12,3 11,3 0 0 4 2 N 1015,0 20 0 0,0
16.03.2019 19:00:00 17,0 6,8 11,6 12,2 11,3 0 0 10 5 N 1014,7 20 43 0,0
16.03.2019 18:00:00 19,5 4,8 19,9 12,0 11,3 5 3 15 8 SE 1015,0 20 60 0,0
16.03.2019 17:00:00 20,4 5,2 23,3 11,8 11,3 9 5 15 8 ESE 1015,6 20 60 0,0
16.03.2019 16:00:00 20,2 5,8 23,5 11,5 11,3 6 3 13 7 ESE 1016,6 20 60 0,0
16.03.2019 15:00:00 18,9 7,0 23,6 11,3 11,3 9 5 16 9 NE 1017,6 20 60 0,0
16.03.2019 14:00:00 18,1 7,2 23,5 11,1 11,3 5 3 13 7 E 1018,9 20 60 0,0
16.03.2019 13:00:00 16,6 6,4 20,6 11,0 11,3 4 2 16 9 ESE 1020,3 20 60 0,0
16.03.2019 12:00:00 14,5 6,3 18,7 10,9 11,3 10 5 19 11 ESE 1021,3 20 60 0,0
16.03.2019 11:00:00 13,2 6,1 16,9 10,9 11,3 10 5 18 10 E 1022,1 20 60 0,0
16.03.2019 10:00:00 11,8 5,6 15,4 10,9 11,3 9 5 16 9 E 1022,9 20 60 0,0
16.03.2019 09:00:00 9,4 6,7 7,6 11,0 11,3 0 0 2 1 N 1023,6 20 60 0,0
16.03.2019 08:00:00 4,4 3,7 -0,2 11,1 11,3 0 0 3 2 N 1024,5 20 19 0,0
16.03.2019 07:00:00 5,4 3,4 0,3 11,2 11,3 0 0 5 3 N 1024,7 20 0 0,0
16.03.2019 06:00:00 7,6 5,1 5,9 11,2 11,3 2 1 4 2 E 1025,3 20 0 0,0
16.03.2019 05:00:00 7,9 5,0 5,9 11,3 11,3 0 0 4 2 N 1025,5 20 0 0,0
16.03.2019 04:00:00 8,6 5,0 6,8 11,3 11,3 0 0 10 5 N 1025,6 20 0 0,0
16.03.2019 03:00:00 9,6 4,4 8,0 11,3 11,3 5 3 10 5 SW 1026,5 20 0 0,0
16.03.2019 02:00:00 9,9 5,9 8,5 11,3 11,3 2 1 17 9 W 1027,2 20 0 0,0
16.03.2019 01:00:00 9,9 6,2 8,9 11,4 11,3 0 0 6 4 N 1027,7 20 0 0,0
16.03.2019 00:00:00 10,1 6,1 9,0 11,4 11,3 2 1 7 4 SW 1028,3 20 0 0,0
15.03.2019 23:00:00 10,5 5,9 9,7 11,4 11,3 3 1 13 7 W 1028,8 20 0 0,0
15.03.2019 22:00:00 10,8 5,7 9,9 11,4 11,3 6 3 15 8 W 1028,8 20 0 0,0
15.03.2019 21:00:00 11,0 6,9 10,3 11,4 11,3 4 2 18 10 W 1028,9 20 0 0,0
15.03.2019 20:00:00 11,0 7,3 10,4 11,4 11,3 4 2 16 9 WSW 1028,7 20 0 0,0
15.03.2019 19:00:00 11,3 8,2 10,9 11,3 11,3 8 5 22 12 W 1028,4 20 0 0,0
15.03.2019 18:00:00 11,5 8,4 11,0 11,3 11,3 10 5 26 14 W 1027,9 20 0 0,0
15.03.2019 17:00:00 11,5 8,5 10,9 11,2 11,3 16 9 34 19 WSW 1027,8 19 2 0,0
15.03.2019 16:00:00 12,0 9,6 11,1 11,1 11,3 16 9 34 18 W 1027,8 19 11 0,0
15.03.2019 15:00:00 12,8 8,3 12,6 11,0 11,3 11 6 31 17 W 1027,8 20 0 0,0
15.03.2019 14:00:00 13,2 9,3 11,5 10,9 11,3 10 5 35 19 W 1027,9 20 8 0,0
15.03.2019 13:00:00 12,8 8,1 13,4 10,8 11,3 18 10 39 21 W 1028,4 20 12 0,0
15.03.2019 12:00:00 12,3 8,2 13,3 10,8 11,3 14 8 35 19 W 1028,9 20 21 0,0
15.03.2019 11:00:00 12,7 8,4 12,4 10,7 11,3 18 10 37 20 W 1029,1 20 29 0,0
15.03.2019 10:00:00 11,4 7,9 10,7 10,8 11,3 15 8 24 13 SW 1029,4 20 5 0,0
15.03.2019 09:00:00 10,3 7,7 9,3 10,8 11,3 12 6 27 15 WSW 1029,5 20 11 0,0
15.03.2019 08:00:00 9,3 6,9 7,9 10,9 11,3 10 6 27 15 WSW 1029,1 20 0 0,0
15.03.2019 07:00:00 8,9 6,9 8,1 10,9 11,3 13 7 23 12 SW 1028,9 20 0 0,0
15.03.2019 06:00:00 9,1 7,2 8,2 10,9 11,3 12 6 30 16 WSW 1029,1 20 0 0,0
15.03.2019 05:00:00 9,1 7,5 8,5 10,9 11,3 13 7 31 17 WSW 1029,2 12 0 0,0
15.03.2019 04:00:00 9,2 7,1 8,3 11,0 11,3 16 9 37 20 WSW 1028,8 18 0 0,0
15.03.2019 03:00:00 9,4 7,2 8,5 11,0 11,3 17 9 33 18 WSW 1029,1 20 0 0,0
15.03.2019 02:00:00 9,0 7,6 8,3 11,0 11,3 16 8 33 18 WSW 1029,5 20 0 0,0
15.03.2019 01:00:00 8,9 7,8 8,3 11,1 11,3 13 7 31 17 WSW 1029,8 4,5 0 0,2
15.03.2019 00:00:00 9,3 7,2 8,0 11,1 11,3 15 8 29 16 WSW 1029,7 18 0 0,0
14.03.2019 23:00:00 9,0 7,0 7,9 11,1 11,3 15 8 33 18 WSW 1029,4 20 0 0,0
14.03.2019 22:00:00 9,1 7,4 8,0 11,2 11,3 16 8 34 18 WSW 1029,4 20 0 0,0
14.03.2019 21:00:00 9,6 6,9 7,8 11,2 11,3 20 11 36 20 WSW 1029,0 19 0 0,0
14.03.2019 20:00:00 9,5 7,1 8,4 11,2 11,3 21 11 40 21 W 1029,1 5 0 0,0
14.03.2019 19:00:00 9,8 6,5 9,5 11,1 11,3 16 9 37 20 W 1028,7 20 36 0,0
14.03.2019 18:00:00 10,3 6,4 8,8 11,1 11,3 22 12 49 26 W 1028,2 19 9 0,0
14.03.2019 17:00:00 11,8 5,6 10,0 10,9 11,3 21 12 49 26 W 1027,8 20 15 0,0
14.03.2019 16:00:00 11,0 7,3 9,7 10,9 11,3 19 10 52 28 W 1028,0 14 3 0,2
14.03.2019 15:00:00 11,9 6,4 11,7 10,7 11,3 28 15 50 27 W 1027,6 20 40 0,0
14.03.2019 14:00:00 11,4 7,7 9,4 10,6 11,3 21 11 42 23 WSW 1028,5 20 13 0,0
14.03.2019 13:00:00 11,6 7,1 9,1 10,6 11,2 18 10 42 23 W 1029,2 20 10 0,2
14.03.2019 12:00:00 11,0 6,7 8,9 10,5 11,3 19 10 46 25 W 1029,7 19 31 0,0
14.03.2019 11:00:00 9,2 7,6 9,1 10,5 11,3 14 8 31 17 WSW 1030,0 6 11 0,2
14.03.2019 10:00:00 8,7 7,1 8,2 10,6 11,3 11 6 20 11 WSW 1030,7 20 0 0,2
14.03.2019 09:00:00 8,4 6,9 7,1 10,6 11,3 11 6 19 10 WSW 1030,4 20 4 0,0
14.03.2019 08:00:00 7,6 6,5 6,9 10,7 11,3 8 5 21 12 WSW 1030,3 14 0 0,6
14.03.2019 07:00:00 7,6 5,9 6,4 10,7 11,2 13 7 22 12 WSW 1029,9 20 0 0,0
14.03.2019 06:00:00 7,6 6,1 6,7 10,7 11,2 11 6 26 14 WSW 1029,6 20 0 0,0
14.03.2019 05:00:00 7,5 6,0 6,6 10,8 11,3 10 5 23 12 WSW 1029,9 20 0 0,2
14.03.2019 04:00:00 7,4 6,0 6,7 10,9 11,3 13 7 24 13 WSW 1030,0 16 0 0,8
14.03.2019 03:00:00 7,5 5,8 6,2 10,9 11,2 8 5 26 14 WSW 1030,5 20 0 0,2
14.03.2019 02:00:00 7,8 5,6 7,0 11,0 11,3 8 5 24 13 WSW 1030,7 20 0 0,0
14.03.2019 01:00:00 7,7 5,5 6,8 11,0 11,2 11 6 22 12 SW 1030,8 20 0 0,0
14.03.2019 00:00:00 7,7 5,5 6,2 11,1 11,2 12 6 25 13 SW 1030,9 20 0 0,0
13.03.2019 23:00:00 7,6 5,2 6,7 11,2 11,2 13 7 24 13 WSW 1030,6 20 0 0,0
13.03.2019 22:00:00 7,7 5,2 6,6 11,3 11,3 14 8 27 15 WSW 1030,0 20 0 0,0
13.03.2019 21:00:00 7,7 4,3 6,8 11,3 11,3 13 7 39 21 W 1029,6 20 0 0,0
13.03.2019 20:00:00 7,8 4,9 6,6 11,3 11,2 9 5 42 23 W 1029,0 20 0 0,0
13.03.2019 19:00:00 8,9 4,9 7,9 11,3 11,2 16 9 44 24 W 1028,2 20 14 0,0
13.03.2019 18:00:00 10,6 5,1 10,6 11,2 11,2 16 9 39 21 W 1027,0 20 42 0,0
13.03.2019 17:00:00 10,0 6,0 8,4 11,1 11,2 19 10 44 24 WNW 1026,6 20 35 0,2
13.03.2019 16:00:00 10,4 6,2 8,7 11,0 11,2 16 9 46 25 W 1026,1 20 14 0,0
13.03.2019 15:00:00 9,9 5,7 8,3 10,9 11,2 18 10 35 19 WNW 1025,8 20 34 0,4
13.03.2019 14:00:00 8,0 4,9 7,6 10,9 11,2 26 14 46 25 WNW 1026,6 8 4 1,4
13.03.2019 13:00:00 9,7 6,2 8,5 10,8 11,2 15 8 42 23 W 1026,4 20 14 0,2
13.03.2019 12:00:00 11,0 6,7 10,7 10,8 11,2 21 11 39 21 W 1026,3 20 30 0,0
13.03.2019 11:00:00 10,6 6,0 11,0 10,8 11,2 20 11 32 17 W 1026,5 20 54 0,0
13.03.2019 10:00:00 8,8 6,4 7,0 10,9 11,2 13 7 29 15 WSW 1026,8 20 30 0,4
13.03.2019 09:00:00 7,9 5,4 6,2 10,9 11,2 13 7 23 13 SW 1026,5 20 15 0,0

tt = temperature
td = dewpoint
tt 5cm = temperature 5cm
tt -20cm = temperature -20cm
tt -100cm = temperature -100cm
ff = wind speed
fx = gusts
dd = wind direction
ppp = reduced air pressure
vv = visibility
sd = sunshine duration
rr = precipitation

Next stations